SCP
1 1 1 1 0 0 0 0 0 0 0 0 0 0 0 0 0 0 0 0 0 0 0 1 1 1 1 1 1 1 1 1 1 1 1 1 1 1 1 1 1 1 1 1 1 1 1 1 1
1 1 1 1 0 0 0 0 0 0 0 0 0 0 0 0 0 0 0 0 0 0 0 1 1 1 1 1 1 1 1 1 1 1 1 1 1 1 1 1 1 1 1 1 1 1 1 1 1
1 1 1 1 0 0 0 0 0 0 0 0 0 0 0 0 0 0 0 0 1 0 0 1 1 1 1 1 1 1 1 1 1 1 1 1 1 1 1 1 1 1 1 1 1 1 1 1 1
1 1 1 1 0 0 0 0 0 0 0 0 0 1 1 1 1 0 1 1 1 0 0 1 1 1 1 1 1 1 1 1 1 1 0 0 1 1 1 1 1 1 1 1 1 1 1 1 1
1 1 1 0 0 0 0 1 1 1 0 0 1 1 1 1 1 1 1 1 1 0 0 1 1 1 1 1 1 1 1 1 1 0 0 0 0 0 1 1 1 1 1 1 1 1 1 1 1
1 1 1 0 0 0 0 1 1 1 1 0 1 1 1 1 1 1 1 1 1 1 0 1 1 1 1 1 1 1 1 1 0 0 0 0 0 0 1 1 1 1 1 1 1 1 0 1 1
1 0 0 0 0 0 1 1 1 1 1 1 1 1 1 1 1 1 1 1 1 1 0 1 1 1 1 1 1 1 1 1 0 0 0 0 1 1 1 1 1 1 1 1 1 0 0 0 1
0 0 0 0 0 0 1 1 1 1 1 1 1 1 1 1 1 1 1 1 1 1 0 1 1 1 1 1 1 1 0 0 0 1 1 1 1 1 1 1 1 1 1 1 0 0 0 0 0
0 0 0 0 0 0 1 1 1 1 1 1 0 1 1 1 2 2 1 1 1 0 0 1 1 1 1 1 1 1 0 0 0 1 1 1 1 1 1 1 1 1 0 0 0 0 0 0 0
0 0 0 0 0 0 1 1 1 1 1 1 1 1 1 2 2 2 1 1 1 0 0 0 1 1 1 1 1 1 1 0 0 0 1 1 0 0 0 1 1 1 0 0 0 0 0 0 0
0 0 0 0 0 0 1 1 1 1 1 1 1 1 1 2 2 2 1 1 1 0 0 0 0 1 1 1 1 1 1 1 0 0 0 0 0 0 0 1 1 1 0 0 0 0 0 0 0
0 0 0 0 0 1 1 1 1 1 1 1 1 1 1 2 2 1 1 1 1 0 0 0 0 0 1 1 1 1 1 1 1 0 0 0 0 0 0 0 0 0 0 0 0 0 0 0 0
0 0 0 0 0 1 1 1 1 1 1 1 1 1 1 1 1 1 1 1 1 0 0 0 0 0 0 1 1 1 1 1 1 0 0 0 0 0 0 0 0 0 0 0 0 0 0 0 0
0 0 0 0 0 0 1 1 1 1 1 1 1 1 1 1 1 1 1 1 1 0 0 0 0 0 0 0 1 1 1 1 0 0 0 0 0 0 0 0 0 0 0 0 0 0 0 0 0
0 0 0 0 0 0 1 1 1 1 1 1 1 1 1 1 1 1 1 1 1 1 1 1 1 0 0 0 1 1 0 0 0 0 0 0 0 0 0 0 0 0 0 0 0 0 0 0 0
0 0 0 0 0 0 0 0 0 1 1 1 1 1 1 1 1 1 1 1 1 1 1 2 2 1 1 0 0 0 0 0 0 0 0 0 0 0 0 0 0 0 0 0 0 0 0 0 0
0 0 0 0 0 0 0 0 0 1 1 1 1 1 1 1 1 1 1 1 1 1 2 3 2 1 1 0 0 0 0 0 0 0 0 0 0 0 0 0 0 0 0 0 0 0 0 0 0
0 0 0 0 0 0 0 0 0 1 1 1 1 1 1 0 1 1 1 1 2 2 2 2 2 1 1 1 1 1 0 0 0 0 0 0 0 0 0 0 0 0 0 0 0 0 0 0 0
0 0 0 0 0 0 0 0 0 0 1 1 1 1 1 1 1 1 1 1 1 1 1 1 1 1 0 1 1 1 1 1 0 0 0 0 0 0 0 0 0 0 0 0 0 0 0 0 0
0 0 0 0 0 0 0 0 0 0 0 1 1 1 1 1 1 1 1 2 2 1 1 1 1 1 1 1 1 1 1 1 1 1 1 0 0 0 0 0 0 0 0 0 0 0 0 0 0
0 0 0 0 0 0 0 0 0 0 0 0 1 1 1 2 1 1 1 1 1 1 1 1 1 1 1 1 1 1 1 1 1 1 1 1 1 1 1 1 1 1 1 0 0 0 0 0 0
0 0 0 0 0 0 0 0 0 0 0 0 1 1 1 2 2 2 1 1 1 1 1 1 1 1 1 1 2 1 1 1 1 1 1 1 1 1 1 1 2 2 1 1 0 0 0 0 0
0 0 0 0 0 0 0 0 0 0 0 0 1 1 1 3 3 2 2 1 1 2 2 2 2 1 1 2 2 2 2 2 2 2 2 1 1 1 1 2 3 4 3 2 1 0 0 0 0
0 0 0 0 0 0 0 0 0 0 0 1 1 1 1 2 3 3 2 1 1 2 2 2 2 1 2 2 2 2 2 2 2 2 2 1 1 1 2 2 4 4 4 3 1 1 0 0 0
0 0 0 0 0 0 0 0 0 0 0 1 1 2 2 2 4 4 3 2 2 2 2 2 2 2 2 3 3 3 3 3 2 1 1 1 1 2 2 3 3 4 3 2 1 1 0 0 0
0 0 0 0 0 0 1 1 1 1 1 1 1 2 2 3 4 5 4 3 3 3 3 3 2 2 2 3 4 4 5 5 3 1 1 1 1 2 2 3 3 3 2 2 1 1 0 1 1
0 0 0 0 0 0 1 1 1 1 1 1 2 2 3 4 4 5 4 3 3 3 4 4 3 3 3 3 4 4 6 6 5 2 1 1 1 2 3 3 3 2 2 2 1 1 1 1 1
0 0 0 0 0 0 0 1 1 1 1 1 2 2 3 4 4 4 4 4 4 4 5 5 5 5 5 5 4 4 5 6 6 4 2 2 2 2 3 3 3 2 2 2 2 1 1 1 2
0 0 0 0 0 0 0 1 1 1 1 1 2 2 3 3 3 4 5 6 6 6 7 8 8 8 7 6 4 3 4 6 7 6 4 3 3 3 3 3 2 2 2 2 3 3 2 2 2
0 0 0 0 0 0 0 1 1 1 1 1 2 2 3 3 3 4 6 8 9 8 8 9 11 10 8 6 4 3 4 6 7 7 6 5 4 3 3 3 2 2 2 3 3 3 3 3 3
Wind_Speed
12 8 4 2 4 5 3 3 1 2 3 2 4 6 5 3 2 2 0 3 4 3 2 4 7 8 10 11 12 13 14 14 14 14 14 14 14 14 14 14 15 15 15 15 15 15 15 14 14
8 6 2 3 5 3 3 2 2 2 4 4 5 5 5 4 3 4 2 3 4 3 2 4 8 9 10 11 12 13 13 13 14 14 14 14 14 14 13 13 14 14 14 14 14 14 14 14 13
7 3 2 4 3 2 2 0 3 4 3 2 4 5 4 3 3 3 3 5 5 3 2 4 8 9 10 10 11 12 12 12 12 13 13 13 13 13 13 13 13 13 13 13 13 13 13 13 12
3 2 3 4 2 2 3 3 5 5 3 4 4 5 4 3 3 4 6 6 5 3 2 4 8 9 9 10 10 11 12 11 12 12 12 12 12 12 12 12 12 12 12 12 12 12 12 12 11
2 3 5 3 2 1 1 4 4 3 3 4 4 4 3 3 6 8 7 6 5 3 2 3 7 8 8 9 10 10 11 11 12 12 11 11 11 11 11 11 11 11 11 11 11 11 11 11 10
3 4 4 2 2 2 2 2 4 5 4 4 4 4 2 2 6 6 6 5 4 3 2 2 6 8 8 8 9 9 9 10 10 10 10 10 10 10 10 10 10 11 11 11 11 10 10 10 9
3 4 3 1 1 1 2 2 4 4 4 3 4 5 1 2 4 6 5 5 4 3 2 2 2 4 7 8 8 8 8 9 9 9 9 9 9 9 9 9 10 11 11 10 10 9 9 8 7
3 4 2 1 2 1 2 2 3 4 3 4 5 6 4 4 7 7 5 4 3 3 2 2 2 2 2 3 6 7 8 8 8 7 8 8 8 8 8 8 9 10 10 10 9 8 8 6 6
3 5 1 3 4 3 3 3 3 3 5 3 2 4 5 11 10 7 5 3 2 2 1 1 2 2 2 1 3 5 6 6 6 5 7 6 3 3 4 7 8 9 9 9 8 7 6 5 4
4 3 5 5 5 5 5 4 5 4 4 2 4 6 10 11 10 8 6 5 4 3 2 2 2 2 1 1 2 2 2 3 3 3 4 3 3 2 3 4 7 8 8 7 7 6 5 4 2
4 5 4 3 4 6 6 4 4 8 4 5 8 11 11 10 9 8 7 6 5 4 3 3 3 2 2 1 1 1 1 2 2 3 3 3 3 2 2 2 2 3 4 3 4 3 2 2 2
3 2 3 3 4 6 7 6 4 5 5 6 11 13 12 11 10 9 9 7 5 4 4 3 3 3 2 2 1 2 1 1 1 2 3 3 2 1 1 1 1 1 2 2 2 1 1 1 2
2 1 1 3 5 5 6 5 4 3 4 10 11 12 11 11 9 7 6 6 5 5 5 4 4 4 3 2 2 2 2 2 2 2 2 3 2 2 1 1 1 1 1 2 1 1 1 0 0
2 2 2 2 4 3 4 2 3 3 8 11 11 10 10 10 9 7 6 6 7 7 6 5 5 4 4 3 2 2 2 2 2 2 2 3 3 2 2 1 1 1 1 2 2 1 1 0 0
2 4 4 1 3 2 5 1 3 5 10 11 10 9 9 8 8 8 9 8 8 7 6 6 5 4 4 4 3 2 2 2 2 2 2 3 3 3 2 2 1 1 1 2 1 1 1 1 1
4 4 1 2 2 3 5 5 5 7 10 10 10 9 9 8 8 8 8 7 7 6 6 6 6 5 5 4 3 2 2 3 2 2 2 3 3 3 3 2 2 2 1 1 1 1 1 1 1
4 1 2 2 3 4 4 6 4 8 10 9 9 9 9 8 8 8 8 8 8 8 7 6 5 6 5 4 3 2 2 2 2 2 3 3 4 4 3 2 2 2 2 2 2 2 2 2 1
4 3 3 4 4 4 4 6 4 9 10 10 9 8 8 10 11 9 9 8 7 7 7 6 5 5 5 3 2 1 1 1 2 2 3 4 4 4 4 2 2 2 2 2 2 2 1 2 2
5 4 5 5 3 4 6 6 5 8 9 9 9 9 10 11 8 7 8 8 7 7 7 7 6 5 5 3 3 2 2 2 2 2 3 4 4 4 4 3 3 3 3 3 3 2 2 1 1
4 3 4 3 1 3 3 4 4 8 12 11 12 12 11 9 6 7 8 8 9 9 8 8 7 6 6 4 3 2 2 2 2 1 2 3 4 4 4 4 3 3 3 3 3 2 2 1 2
3 5 5 3 1 3 2 4 3 4 5 7 9 9 10 12 12 10 10 10 9 10 11 10 9 8 7 5 3 2 2 1 1 1 1 2 4 4 4 4 4 3 3 3 3 3 4 2 1
5 6 5 4 4 1 2 3 7 4 4 8 10 9 11 12 11 11 11 11 12 12 10 9 9 8 7 6 5 5 4 3 3 2 2 2 3 3 4 4 4 4 3 3 3 3 3 3 2
5 1 4 4 4 2 1 2 8 1 5 9 11 12 12 12 12 12 13 13 11 10 9 8 8 7 7 7 7 6 4 3 2 2 2 2 1 2 3 4 4 4 3 4 3 3 3 3 3
5 7 7 6 5 0 4 4 7 5 8 7 9 11 12 12 12 11 10 9 8 8 8 8 8 8 8 8 7 7 6 5 4 3 3 2 1 1 2 3 3 4 3 4 4 4 4 3 3
5 7 4 4 3 6 2 3 10 8 7 8 9 9 10 10 10 10 10 10 10 10 10 9 9 8 8 8 8 7 7 6 5 4 4 3 2 2 3 3 4 3 3 3 3 3 3 4 4
5 10 9 6 6 5 1 6 9 7 5 5 6 5 6 9 10 11 12 11 11 11 11 10 10 9 8 8 8 6 6 5 4 4 4 4 4 4 4 4 4 4 4 4 4 3 3 3 4
6 4 6 7 3 1 5 7 9 4 4 4 3 2 5 8 10 10 10 11 11 11 12 11 10 8 8 9 7 6 6 6 5 5 4 3 3 3 4 4 4 4 4 4 4 3 3 3 3
5 8 6 7 7 4 4 5 6 6 6 4 3 3 4 5 6 7 8 10 10 10 9 9 9 8 8 7 7 7 7 7 6 5 5 4 4 4 4 4 4 4 4 4 3 3 3 3 3
3 4 5 5 5 7 4 8 7 7 5 4 4 3 3 4 6 7 6 7 7 6 7 7 7 6 6 7 7 6 5 6 6 5 6 5 4 4 4 5 4 4 4 4 4 4 4 4 4
4 6 7 6 4 4 5 9 4 4 4 3 2 1 1 1 3 5 5 5 6 6 6 6 6 6 6 6 6 6 5 5 5 5 5 5 5 5 5 5 5 5 5 5 5 5 4 4 4
Wind_Direction
145 142 143 121 56 45 5 334 31 69 56 40 77 87 96 78 101 142 121 114 107 104 99 123 121 117 113 111 109 114 121 122 123 123 125 125 126 126 126 125 126 127 128 128 127 125 124 123 122
143 153 143 65 74 49 327 329 60 80 129 122 81 75 71 61 65 105 122 128 116 109 94 125 123 120 117 114 113 115 119 123 126 126 127 127 127 128 130 129 129 129 129 129 127 126 125 125 124
157 175 90 71 85 159 207 167 115 103 109 87 73 62 72 91 114 138 152 132 112 106 99 135 125 122 119 117 116 118 119 122 126 127 128 128 129 131 132 132 132 132 131 131 128 127 126 125 125
150 72 60 63 44 234 187 166 137 121 70 51 82 67 61 77 130 134 130 126 115 105 98 131 126 124 122 121 120 121 121 122 129 130 129 131 133 134 134 135 134 132 131 128 128 128 127 124 124
81 80 56 34 357 1 112 141 136 113 84 66 81 79 43 32 95 116 124 126 122 111 98 128 129 129 126 124 123 123 123 124 130 133 134 136 137 138 138 138 137 135 131 128 127 128 127 127 128
71 70 70 27 360 37 87 116 108 95 97 93 89 87 43 89 112 125 122 116 117 115 103 113 135 134 134 132 129 127 126 125 127 134 138 139 141 143 141 140 140 135 132 129 128 129 130 130 130
114 99 115 142 69 74 153 111 119 125 121 127 117 99 91 133 129 122 110 102 99 98 95 82 97 126 135 135 135 132 131 129 129 133 138 144 145 145 142 142 140 137 134 133 133 132 130 130 129
145 103 89 139 153 208 151 114 128 133 125 123 121 135 175 172 131 111 97 91 93 91 88 90 78 77 90 123 137 134 131 129 130 132 137 143 145 145 144 140 141 139 138 137 136 134 128 126 127
119 78 164 203 180 193 152 124 135 103 115 125 120 146 155 135 128 119 108 97 114 135 100 103 99 87 85 110 141 132 130 128 124 121 128 123 97 100 124 140 144 141 141 141 139 135 132 128 119
107 133 216 203 181 166 159 143 148 118 125 105 85 96 120 133 142 149 155 164 175 182 180 162 150 138 131 150 98 84 93 96 87 82 91 90 95 104 121 139 150 148 145 142 136 130 124 106 93
154 188 212 200 170 144 142 138 138 135 181 191 161 146 143 148 156 167 175 179 187 185 186 179 174 160 154 129 115 95 86 85 88 94 97 94 85 83 81 77 112 119 125 107 111 105 91 96 104
163 238 191 180 144 140 147 142 140 170 205 168 155 151 153 162 174 181 183 185 177 173 192 189 181 172 170 155 140 130 125 118 118 119 120 112 103 90 85 85 92 92 96 99 90 102 104 102 109
164 207 174 148 136 141 129 139 152 179 136 130 138 150 163 172 182 187 183 178 173 180 190 191 184 183 178 169 178 163 158 156 152 141 140 139 137 136 123 114 107 116 121 126 130 127 115 99 69
183 102 85 107 119 127 119 120 125 171 139 138 150 165 174 178 181 178 179 182 183 186 188 180 183 185 174 177 181 174 170 166 160 166 170 161 154 155 155 158 151 154 155 152 155 166 169 226 246
77 74 45 80 125 134 112 121 214 168 148 153 166 175 182 185 184 189 190 188 187 187 182 175 178 173 175 186 193 181 179 172 173 181 180 173 169 168 165 167 176 187 169 155 148 155 148 216 238
56 67 83 257 147 139 133 235 219 160 158 169 177 182 187 194 194 197 192 189 184 177 176 182 182 172 177 181 181 173 174 179 187 180 179 184 181 176 168 175 193 183 162 159 165 162 155 202 230
42 105 227 251 196 152 169 238 211 168 171 182 187 189 190 194 202 202 195 191 184 179 176 179 180 172 175 170 159 164 163 182 191 180 178 187 185 182 175 187 194 173 167 177 191 166 167 191 219
210 201 226 220 215 162 202 240 210 180 182 192 194 195 196 200 206 198 193 191 184 177 174 178 177 175 163 149 137 138 160 197 198 191 189 189 188 184 176 188 191 172 172 183 181 171 172 189 202
177 181 229 242 205 173 215 242 223 187 191 198 201 202 206 213 207 190 187 185 178 176 177 181 180 178 160 153 162 166 198 200 202 204 195 193 194 185 177 191 187 180 186 192 177 164 171 185 154
161 188 239 277 172 166 219 255 232 197 202 203 203 207 209 207 197 193 188 184 184 186 188 188 188 183 178 176 169 164 164 180 192 199 190 192 194 190 191 187 191 186 180 178 172 165 159 183 161
194 196 213 207 45 48 86 314 269 240 218 218 217 211 207 203 201 197 191 191 188 192 193 195 191 187 183 170 138 117 101 87 128 175 193 200 197 192 189 186 185 184 177 188 191 181 174 186 195
237 221 187 162 124 266 122 264 282 243 242 228 224 214 212 209 201 196 193 194 196 198 193 191 186 185 181 170 167 168 176 191 200 190 194 200 192 190 188 186 182 181 182 192 202 191 187 176 192
210 146 133 129 127 78 31 171 282 289 246 241 227 217 214 209 202 198 197 197 196 191 187 187 181 184 182 180 182 181 190 197 181 167 178 197 199 196 194 184 175 181 190 200 200 190 193 189 188
135 72 58 53 74 144 230 175 269 239 227 242 232 220 211 204 201 200 196 186 183 178 179 179 181 190 185 185 187 189 192 188 179 188 190 199 202 207 202 183 179 188 197 202 200 196 198 201 197
105 94 45 12 19 245 235 189 246 249 237 234 238 227 211 198 194 193 186 182 178 177 181 180 184 192 189 188 194 196 194 187 193 199 200 196 201 209 213 196 189 196 202 202 191 190 202 200 197
171 144 161 188 208 254 253 226 251 258 266 265 259 241 205 192 193 194 190 186 183 181 181 181 186 191 187 192 200 197 191 187 196 202 200 202 209 213 205 195 198 203 201 201 191 195 204 198 202
142 168 163 134 146 194 267 279 298 282 292 289 288 250 207 198 194 193 185 180 180 181 186 185 184 185 187 193 194 193 190 189 194 196 200 205 210 207 196 193 197 201 194 192 186 198 207 196 203
135 141 105 125 148 216 271 265 251 269 270 286 296 276 243 207 192 187 183 182 180 184 179 174 180 185 187 189 196 200 196 194 188 182 199 208 210 207 190 193 195 192 189 188 187 200 209 206 218
94 97 108 118 150 158 215 260 232 228 236 242 254 251 242 206 188 179 176 174 168 160 159 165 172 175 183 191 196 198 195 192 185 194 204 206 202 197 193 192 192 193 195 193 195 205 200 210 224
158 160 145 151 202 174 176 258 283 237 244 229 241 286 329 143 156 152 146 142 148 148 151 161 166 176 190 191 188 190 187 183 193 205 209 198 199 200 199 194 197 200 201 197 201 214 209 212 223